timestamp,surface_pressure_avg,surface_temp_avg,battery_voltage,lat,long
2023-11-30 00:09:01+00:00,316.298,6.96,11.86,47.84626,-54.09684
2023-11-30 00:19:00+00:00,316.4363,7.0,11.86,47.84626,-54.09684
2023-11-30 00:29:00+00:00,317.278,7.0,11.86,47.84626,-54.09684
2023-11-30 00:39:00+00:00,322.6197,7.0,11.86,47.84626,-54.09684
2023-11-30 00:49:00+00:00,325.158,7.0,11.86,47.84626,-54.09684
2023-11-30 00:59:00+00:00,325.6113,7.0,11.86,47.84626,-54.09684
2023-11-30 01:09:00+00:00,327.7813,7.0,11.86,47.84626,-54.09684
2023-11-30 01:19:00+00:00,331.3130000000001,7.0,11.86,47.84626,-54.09684
2023-11-30 01:29:00+00:00,338.3914,6.99,11.86,47.84626,-54.09684
2023-11-30 01:39:00+00:00,341.7313,6.99,11.86,47.84626,-54.09684
2023-11-30 01:49:00+00:00,344.6146,6.98,11.86,47.84626,-54.09684
2023-11-30 01:59:00+00:00,349.9996,6.98,11.86,47.84626,-54.09684
2023-11-30 02:09:00+00:00,352.2762,6.98,11.86,47.84626,-54.09684
2023-11-30 02:19:00+00:00,341.6513,6.92,11.86,47.84626,-54.09684
2023-11-30 02:29:00+00:00,335.583,6.93,11.86,47.84626,-54.09684
2023-11-30 02:39:00+00:00,343.5613,6.92,11.86,47.84626,-54.09684
2023-11-30 02:49:00+00:00,337.0013,6.9,11.86,47.84626,-54.09684
2023-11-30 02:59:00+00:00,324.3914,6.9,11.86,47.84626,-54.09684
2023-11-30 03:09:00+00:00,323.0546,6.9,11.86,47.84626,-54.09684
2023-11-30 03:19:01+00:00,317.8296,6.9,11.86,47.84626,-54.09684
2023-11-30 03:29:01+00:00,298.658,6.9,11.86,47.84626,-54.09684
2023-11-30 03:39:01+00:00,287.4047,6.9,11.86,47.84626,-54.09684
2023-11-30 03:49:01+00:00,296.7548,6.9,11.86,47.84626,-54.09684
2023-11-30 03:59:01+00:00,289.1848,6.9,11.86,47.84626,-54.09684
2023-11-30 04:09:01+00:00,268.1331,6.9,11.86,47.84626,-54.09684
2023-11-30 04:19:01+00:00,260.5148,6.9,11.86,47.84626,-54.09684
2023-11-30 04:29:01+00:00,267.6247,6.8,11.86,47.84626,-54.09684
2023-11-30 04:39:01+00:00,262.3764,6.7,11.86,47.84626,-54.09684
2023-11-30 04:49:01+00:00,249.6398,6.7,11.86,47.84626,-54.09684
2023-11-30 04:59:01+00:00,250.8247,6.6,11.86,47.84626,-54.09684
2023-11-30 05:09:01+00:00,251.7547,6.6,11.86,47.84626,-54.09684
2023-11-30 05:19:00+00:00,240.3715,6.6,11.86,47.84626,-54.09684
2023-11-30 05:29:00+00:00,229.8947,6.4,11.86,47.84626,-54.09684
2023-11-30 05:39:00+00:00,228.3498,6.54,11.86,47.84626,-54.09684
2023-11-30 05:49:00+00:00,228.7681,6.7,11.86,47.84626,-54.09684
2023-11-30 05:59:00+00:00,222.5948,6.36,11.86,47.84626,-54.09684
2023-11-30 06:09:00+00:00,215.9482,6.37,11.86,47.84626,-54.09684
2023-11-30 06:19:00+00:00,218.6414,6.62,11.86,47.84626,-54.09684
2023-11-30 06:29:00+00:00,219.1681,6.7,11.86,47.84626,-54.09684
2023-11-30 06:39:00+00:00,212.4547,6.6,11.86,47.84626,-54.09684
2023-11-30 06:49:00+00:00,206.3048,6.64,11.86,47.84626,-54.09684
2023-11-30 06:59:00+00:00,207.8131,6.66,11.86,47.84626,-54.09684
2023-11-30 07:09:00+00:00,209.1348,6.6,11.86,47.84626,-54.09684
2023-11-30 07:19:00+00:00,211.0514,6.5,11.86,47.84626,-54.09684
2023-11-30 07:29:00+00:00,216.4697,6.33,11.86,47.84626,-54.09684
2023-11-30 07:39:00+00:00,222.5065,6.2,11.86,47.84626,-54.09684
2023-11-30 07:49:00+00:00,224.1331,5.75,11.86,47.84626,-54.09684
2023-11-30 07:59:00+00:00,225.5248,5.87,11.86,47.84626,-54.09684
2023-11-30 08:09:00+00:00,233.6248,6.14,11.86,47.84626,-54.09684
2023-11-30 08:19:00+00:00,240.808,6.1,11.77,47.84626,-54.09684
2023-11-30 08:29:00+00:00,245.3164,6.18,11.77,47.84626,-54.09684
2023-11-30 08:39:00+00:00,250.4264,6.22,11.77,47.84626,-54.09684
2023-11-30 08:49:00+00:00,255.4397,6.28,11.77,47.84626,-54.09684
2023-11-30 08:59:00+00:00,257.433,6.2,11.77,47.84626,-54.09684
2023-11-30 09:09:00+00:00,263.9164,6.1,11.77,47.84626,-54.09684
2023-11-30 09:19:00+00:00,272.3731,6.1,11.86,47.84626,-54.09684
2023-11-30 09:29:00+00:00,275.0781,5.99,11.86,47.84626,-54.09684
2023-11-30 09:39:00+00:00,278.8864,6.12,11.86,47.84626,-54.09684
2023-11-30 09:49:00+00:00,284.9264,6.12,11.86,47.84626,-54.09684
2023-11-30 09:59:00+00:00,287.0114,6.1,11.86,47.84626,-54.09684
2023-11-30 10:09:00+00:00,286.9431,6.1,11.86,47.84626,-54.09684
2023-11-30 10:19:00+00:00,291.5281,6.2,11.86,47.84626,-54.09684
2023-11-30 10:29:00+00:00,295.2863,6.2,11.86,47.84626,-54.09684
2023-11-30 10:39:00+00:00,298.2547,6.15,11.86,47.84626,-54.09684
2023-11-30 10:49:00+00:00,304.3279,6.16,11.86,47.84626,-54.09684
2023-11-30 10:59:00+00:00,312.658,6.17,11.86,47.84626,-54.09684
2023-11-30 11:09:00+00:00,316.5296,6.1,11.86,47.84626,-54.09684
2023-11-30 11:19:00+00:00,319.653,6.1,11.86,47.84626,-54.09684
2023-11-30 11:29:00+00:00,326.8363,6.16,11.86,47.84626,-54.09684
2023-11-30 11:39:00+00:00,337.1046,6.09,11.86,47.84626,-54.09684
2023-11-30 11:49:00+00:00,347.8046,6.0,11.86,47.84626,-54.09684
2023-11-30 11:59:00+00:00,351.2913,5.9,11.86,47.84626,-54.09684
2023-11-30 12:09:00+00:00,355.7114,5.9,11.86,47.84626,-54.09684
2023-11-30 12:19:01+00:00,365.0379,5.9,12.17,47.84626,-54.09684
2023-11-30 12:29:01+00:00,372.3729,5.99,12.17,47.84626,-54.09684
2023-11-30 12:39:01+00:00,377.2529,6.06,12.17,47.84626,-54.09684
2023-11-30 12:49:01+00:00,380.6213,6.42,12.17,47.84626,-54.09684
2023-11-30 12:59:01+00:00,383.773,6.81,12.17,47.84626,-54.09684
2023-11-30 13:09:01+00:00,388.9063,6.8,12.17,47.84626,-54.09684
2023-11-30 13:19:00+00:00,386.7279,6.8,12.25,47.84626,-54.09684
2023-11-30 13:29:00+00:00,385.3379,6.8,12.25,47.84626,-54.09684
2023-11-30 13:39:00+00:00,387.8096,6.8,12.25,47.84626,-54.09684
2023-11-30 13:49:00+00:00,391.7313,6.8,12.25,47.84626,-54.09684
2023-11-30 13:59:00+00:00,393.6563,6.73,12.25,47.84626,-54.09684
2023-11-30 14:09:00+00:00,396.5312,6.78,12.25,47.84626,-54.09684
2023-11-30 14:19:00+00:00,393.9229,6.8,12.49,47.84626,-54.09684
2023-11-30 14:29:00+00:00,387.8096,6.78,12.49,47.84626,-54.09684
2023-11-30 14:39:00+00:00,383.9062,6.7,12.49,47.84626,-54.09684
2023-11-30 14:49:00+00:00,380.5895,6.7,12.49,47.84626,-54.09684
2023-11-30 14:59:00+00:00,370.9313,6.7,12.49,47.84626,-54.09684
2023-11-30 15:09:00+00:00,366.5396,6.7,12.49,47.84626,-54.09684
2023-11-30 15:19:00+00:00,363.3013,6.69,12.41,47.84626,-54.09684
2023-11-30 15:29:00+00:00,351.6813,6.67,12.41,47.84626,-54.09684
2023-11-30 15:39:00+00:00,340.3963,6.67,12.41,47.84626,-54.09684
2023-11-30 15:49:00+00:00,340.2446,6.6,12.41,47.84626,-54.09684
2023-11-30 15:59:00+00:00,336.0747,6.42,12.41,47.84626,-54.09684
2023-11-30 16:09:00+00:00,320.8931,5.8,12.41,47.84626,-54.09684
2023-11-30 16:19:00+00:00,311.27299999999997,5.8,12.33,47.84626,-54.09684
2023-11-30 16:29:00+00:00,308.5181,5.8,12.33,47.84626,-54.09684
2023-11-30 16:39:00+00:00,297.0697,5.77,12.33,47.84626,-54.09684
2023-11-30 16:49:00+00:00,282.1531,5.8,12.33,47.84626,-54.09684
2023-11-30 16:59:00+00:00,277.2731,5.82,12.33,47.84626,-54.09684
2023-11-30 17:09:00+00:00,272.8347,5.96,12.33,47.84626,-54.09684
2023-11-30 17:19:00+00:00,259.0264,5.86,12.41,47.84626,-54.09684
2023-11-30 17:29:00+00:00,249.1331,5.6,12.41,47.84626,-54.09684
2023-11-30 17:39:00+00:00,248.1381,5.51,12.41,47.84626,-54.09684
2023-11-30 17:49:00+00:00,240.6432,5.4,12.41,47.84626,-54.09684
2023-11-30 17:59:00+00:00,228.2947,5.3,12.41,47.84626,-54.09684
2023-11-30 18:09:00+00:00,221.9098,5.2,12.41,47.84626,-54.09684
2023-11-30 18:19:00+00:00,217.8748,5.2,12.25,47.84626,-54.09684
2023-11-30 18:29:00+00:00,209.2464,5.2,12.25,47.84626,-54.09684
2023-11-30 18:39:00+00:00,202.2798,5.2,12.25,47.84626,-54.09684
2023-11-30 18:49:00+00:00,199.8898,5.2,12.25,47.84626,-54.09684
2023-11-30 18:59:00+00:00,194.3048,5.26,12.25,47.84626,-54.09684
2023-11-30 19:09:00+00:00,189.2398,5.2,12.25,47.84626,-54.09684
2023-11-30 19:19:00+00:00,189.8648,5.2,12.17,47.84626,-54.09684
2023-11-30 19:29:00+00:00,189.6731,5.0,12.17,47.84626,-54.09684
2023-11-30 19:39:00+00:00,188.5382,4.9,12.17,47.84626,-54.09684
2023-11-30 19:49:00+00:00,189.6215,4.87,12.17,47.84626,-54.09684
2023-11-30 19:59:00+00:00,190.2014,5.0,12.17,47.84626,-54.09684
2023-11-30 20:09:00+00:00,193.5681,5.33,12.17,47.84626,-54.09684
2023-11-30 20:19:00+00:00,198.5998,5.5,12.09,47.84626,-54.09684
2023-11-30 20:29:00+00:00,202.6931,5.58,12.09,47.84626,-54.09684
2023-11-30 20:39:00+00:00,208.3864,5.79,12.09,47.84626,-54.09684
2023-11-30 20:49:00+00:00,215.5081,6.06,12.09,47.84626,-54.09684
2023-11-30 20:59:00+00:00,220.1148,6.1,12.09,47.84626,-54.09684
2023-11-30 21:09:00+00:00,221.7697,6.13,12.09,47.84626,-54.09684
2023-11-30 21:19:00+00:00,224.5831,6.19,12.09,47.84626,-54.09684
2023-11-30 21:29:00+00:00,228.5514,6.2,12.09,47.84626,-54.09684
2023-11-30 21:39:00+00:00,228.0214,6.0,12.09,47.84626,-54.09684
2023-11-30 21:49:00+00:00,229.9547,5.9,12.09,47.84626,-54.09684
2023-11-30 21:59:00+00:00,237.0364,6.02,12.09,47.84626,-54.09684
2023-11-30 22:09:00+00:00,241.3497,6.1,12.09,47.84626,-54.09684
2023-11-30 22:19:01+00:00,243.5381,6.15,12.09,47.84626,-54.09684
2023-11-30 22:29:01+00:00,249.7848,6.29,12.09,47.84626,-54.09684
2023-11-30 22:39:01+00:00,256.6031,6.4,12.09,47.84626,-54.09684
2023-11-30 22:49:01+00:00,257.7197,6.4,12.09,47.84626,-54.09684
2023-11-30 22:59:01+00:00,257.7448,6.47,12.09,47.84626,-54.09684
2023-11-30 23:09:01+00:00,262.4414,6.5,12.09,47.84626,-54.09684
2023-11-30 23:19:00+00:00,264.5365,6.5,12.01,47.84626,-54.09684
2023-11-30 23:29:00+00:00,261.3231,6.49,12.01,47.84626,-54.09684
2023-11-30 23:39:00+00:00,266.4181,6.5,12.01,47.84626,-54.09684
2023-11-30 23:49:00+00:00,275.9964,6.56,12.01,47.84626,-54.09684
2023-11-30 23:59:00+00:00,279.2498,6.6,12.01,47.84626,-54.09684
